User: anonymous   Login
Location: Syke, Rochdale
(53.6121°N, 2.1588°W)
Time: 16:44:10
(UTC+02:00)
Language:

Oscar 11 - Orbit

View from above orbital plane
View from above orbital plane
View from above satellite
View from above satellite

Ground track
Ground track

The orbit data is extracted from the following two-line orbital elements,

1 14781U 84021B   18200.58917449 +.00000030 +00000-0 +98764-5 0  9996
2 14781 097.6467 235.4193 0007992 347.2579 012.8432 14.83018157828245
Epoch (UTC): 19 July 2018 14:08:24
Eccentricity: 0.0007992
inclination: 97.6467°
perigee height: 614 km
apogee height: 625 km
right ascension of ascending node: 235.4193°
argument of perigee: 347.2579°
revolutions per day: 14.83018157
mean anomaly at epoch: 12.8432°
orbit number at epoch: 82824

The dashed part of the orbit path shows where the satellite is in the earth's shadow,  

DLR